[TLELIST] Archives

 

Current TLEs

December 18th 2006 PDT

HST 1 20580U 90037B 06350.92454141 +.00000872 +00000-0 +55178-4 0 07724 2 20580 028.4692 298.5602 0003449 321.9857 038.0511 15.00159613712565 ISS (ZARYA) 1 25544U 98067A 06352.51608796 .00016039 00000-0 10317-3 0 2827 2 25544 051.6373 317.2076 0023719 349.6262 149.3814 15.76021060462243 CXO 1 25867U 99040B 06350.20833333 +.00000456 +00000-0 +00000-0 0 00120 2 25867 060.8011 093.1990 5985181 287.3083 359.0893 00.37804090001565 ____________________________________________________________________ These 2-Line ...Continue Reading

Current TLEs

December 17th 2006 PDT

HST 1 20580U 90037B 06351.19065633 .00000902 00000-0 57525-4 0 7629 2 20580 028.4693 296.8255 0003436 325.0278 035.0084 15.00160149712602 ISS (ZARYA) 1 25544U 98067A 06351.50243056 .00045933 00000-0 28680-3 0 2758 2 25544 051.6365 322.4287 0023582 345.7788 158.2461 15.76004282462080 CXO 1 25867U 99040B 06350.20833333 +.00000456 +00000-0 +00000-0 0 00120 2 25867 060.8011 093.1990 5985181 287.3083 359.0893 00.37804090001565 ____________________________________________________________________ These 2-Line ...Continue Reading

Current TLEs

December 16th 2006 PDT

HST 1 20580U 90037B 06349.26131856 .00000679 00000-0 40132-4 0 7611 2 20580 028.4692 309.4018 0003530 303.9688 056.0566 15.00156812712312 ISS (ZARYA) 1 25544U 98067A 06350.47854324 .00028191 00000-0 17845-3 0 2702 2 25544 051.6358 327.6996 0022056 342.4287 108.8145 15.75999747461929 CXO 1 25867U 99040B 06350.20833333 +.00000456 +00000-0 +00000-0 0 00120 2 25867 060.8011 093.1990 5985181 287.3083 359.0893 00.37804090001565 ____________________________________________________________________ These 2-Line ...Continue Reading

Current TLEs

December 15th 2006 PDT

HST 1 20580U 90037B 06347.26544773 +.00000706 +00000-0 +42201-4 0 07671 2 20580 028.4692 322.4132 0003628 281.8494 078.1686 15.00154929712013 ISS (ZARYA) 1 25544U 98067A 06349.52820722 .00024011 00000-0 15209-3 0 2632 2 25544 051.6384 332.5981 0023728 339.6447 116.3290 15.76035199461771 CXO 1 25867U 99040B 06347.54166667 +.00000419 +00000-0 +00000-0 0 00110 2 25867 060.7879 093.2399 5982209 287.3767 355.9901 00.37804535001555 ____________________________________________________________________ These 2-Line ...Continue Reading

Current TLEs

December 14th 2006 PDT

HST 1 20580U 90037B 06348.19685447 .00000681 00000-0 40286-4 0 7604 2 20580 028.4692 316.3418 0003614 291.9999 068.0206 15.00155718712157 ISS (ZARYA) 1 25544U 98067A 06348.51311500 .00024041 00000-0 15335-3 0 2564 2 25544 051.6365 337.8221 0023653 335.0498 117.9847 15.75876917461616 CXO 1 25867U 99040B 06347.54166667 +.00000419 +00000-0 +00000-0 0 00110 2 25867 060.7879 093.2399 5982209 287.3767 355.9901 00.37804535001555 ____________________________________________________________________ These 2-Line ...Continue Reading

Current TLEs

December 13th 2006 PDT

HST 1 20580U 90037B 06346.40057010 .00000715 00000-0 42924-4 0 7592 2 20580 028.4693 328.0509 0003632 272.5878 087.4297 15.00154067711880 ISS (ZARYA) 1 25544U 98067A 06347.37308007 .00026637 00000-0 16981-3 0 2498 2 25544 051.6364 343.6937 0023562 330.7381 130.4459 15.75823762461435 CXO 1 25867U 99040B 06344.91666667 +.00000367 +00000-0 +00000-0 0 00104 2 25867 060.7781 093.2927 5979550 287.4395 358.5698 00.37803074001545 ____________________________________________________________________ These 2-Line ...Continue Reading

Current TLEs

December 12th 2006 PDT

HST 1 20580U 90037B 06345.33610491 .00000694 00000-0 41239-4 0 7584 2 20580 028.4692 334.9912 0003800 260.9292 099.0867 15.00152690711726 ISS (ZARYA) 1 25544U 98067A 06346.49084252 .00043158 00000-0 27240-3 0 2445 2 25544 051.6371 348.2353 0023726 327.8860 165.0892 15.75782262461295 CXO 1 25867U 99040B 06344.91666667 +.00000367 +00000-0 +00000-0 0 00104 2 25867 060.7781 093.2927 5979550 287.4395 358.5698 00.37803074001545 ____________________________________________________________________ These 2-Line ...Continue Reading

Current TLEs

December 11th 2006 PDT

HST 1 20580U 90037B 06343.34023208 +.00000614 +00000-0 +35024-4 0 07696 2 20580 028.4692 348.0049 0003779 239.1693 120.8523 15.00150076711426 ISS (ZARYA) 1 25544U 98067A 06345.53134417 .00024954 00000-0 16027-3 0 2385 2 25544 051.6365 353.1768 0023548 323.6494 122.7473 15.75698229461140 CXO 1 25867U 99040B 06344.91666667 +.00000367 +00000-0 +00000-0 0 00104 2 25867 060.7781 093.2927 5979550 287.4395 358.5698 00.37803074001545 ____________________________________________________________________ These 2-Line ...Continue Reading

Current TLEs

December 10th 2006 PDT

HST 1 20580U 90037B 06343.34023208 +.00000614 +00000-0 +35024-4 0 07696 2 20580 028.4692 348.0049 0003779 239.1693 120.8523 15.00150076711426 ISS (ZARYA) 1 25544U 98067A 06344.52556770 .00026939 00000-0 17281-3 0 2314 2 25544 051.6355 358.3524 0023896 319.1316 178.2450 15.75662881460982 CXO 1 25867U 99040B 06344.91666667 +.00000367 +00000-0 +00000-0 0 00104 2 25867 060.7781 093.2927 5979550 287.4395 358.5698 00.37803074001545 ____________________________________________________________________ These 2-Line ...Continue Reading

Current TLEs

December 9th 2006 PDT

HST 1 20580U 90037B 06342.40882358 .00000577 00000-0 32082-4 0 7566 2 20580 028.4694 354.0756 0003834 229.2100 130.8154 15.00148965711284 ISS (ZARYA) 1 25544U 98067A 06343.51530065 .00026828 00000-0 17257-3 0 2243 2 25544 051.6356 003.5545 0023755 315.2039 207.7850 15.75608255460828 CXO 1 25867U 99040B 06342.29166667 +.00000312 +00000-0 +00000-0 0 00096 2 25867 060.7706 093.3428 5975899 287.5171 001.1478 00.37799762001538 ____________________________________________________________________ These 2-Line ...Continue Reading
  • This mailing list is a public mailing list - anyone may join or leave, at any time.
  • This mailing list is announce-only.

International Space Station (ISS) / Hubble Space Telescope (HST) / Chandra X-Ray Observatory Orbital Data via EMAIL

Privacy Policy:

Private list